This is the latest recevied weather packets stored in our database for station/object AE5HO. If no packets are shown the sender has not sent any weather packets the latest 10 day(s).
| Time | Temp. | Humidity | Pressure | Rain* | Wind** | Luminosity | Snow |
|---|---|---|---|---|---|---|---|
| 1778021842 | 28.89° C | 58% | 1004.5 hPa | 0 mm | - | 57 W/m² | - |
| 1778021539 | 28.89° C | 58% | 1004.4 hPa | 0 mm | - | 64 W/m² | - |
| 1778021235 | 28.89° C | 57% | 1004.1 hPa | 0 mm | - | 60 W/m² | - |
| 1778020933 | 29.44° C | 56% | 1004.3 hPa | 0 mm | - | 78 W/m² | - |
| 1778020630 | 29.44° C | 55% | 1004.2 hPa | 0 mm | - | 76 W/m² | - |
| 1778020326 | 29.44° C | 53% | 1004.4 hPa | 0 mm | - | 92 W/m² | - |
| 1778020022 | 30° C | 52% | 1004.1 hPa | 0 mm | - | 95 W/m² | - |
| 1778019718 | 30° C | 53% | 1004 hPa | 0 mm | - | 93 W/m² | - |
| 1778019416 | 30° C | 52% | 1003.9 hPa | 0 mm | - | 104 W/m² | - |
| 1778019112 | 30.56° C | 52% | 1003.8 hPa | 0 mm | - | 104 W/m² | - |
| 1778018809 | 30.56° C | 50% | 1003.8 hPa | 0 mm | - | 103 W/m² | - |
| 1778018507 | 31.11° C | 52% | 1003.6 hPa | 0 mm | - | 110 W/m² | - |
| 1778018204 | 31.11° C | 51% | 1003.5 hPa | 0 mm | - | 99 W/m² | - |
| 1778017902 | 31.67° C | 53% | 1003.8 hPa | 0 mm | - | 113 W/m² | - |
| 1778017600 | 32.22° C | 55% | 1003.7 hPa | 0 mm | - | 95 W/m² | - |
| 1778017297 | 32.22° C | 54% | 1003.9 hPa | 0 mm | - | 111 W/m² | - |
| 1778016994 | 32.22° C | 54% | 1003.8 hPa | 0 mm | - | 69 W/m² | - |
| 1778016691 | 32.22° C | 54% | 1003.9 hPa | 0 mm | - | 69 W/m² | - |
| 1778016387 | 32.22° C | 56% | 1003.8 hPa | 0 mm | - | 75 W/m² | - |
| 1778016085 | 32.22° C | 54% | 1003.7 hPa | 0 mm | - | 87 W/m² | - |
| 1778015782 | 32.22° C | 57% | 1003.9 hPa | 0 mm | - | 56 W/m² | - |
| 1778015479 | 31.67° C | 56% | 1004.2 hPa | 0 mm | - | 65 W/m² | - |
| 1778015175 | 32.22° C | 57% | 1004.1 hPa | 0 mm | - | 64 W/m² | - |
| 1778014872 | 32.22° C | 57% | 1003.9 hPa | 0 mm | - | 66 W/m² | - |
| 1778014570 | 31.67° C | 58% | 1004.4 hPa | 0 mm | - | 64 W/m² | - |
* Rain latest hour (hover to see other rain measurements)
** Current wind speed in m/s (hover to see current wind gust speed)